SUOMI NPP (37849 NORAD) Tracking and Keplerian Element Data

This shows tracking and keplerian element data for the satellite.

Feedback or suggestion? Click here.




ElementValue
Catalog37849
NameSUOMI NPP
Epoch Orbit65358
Epoch Day160.16152439
Epoch Year2024
RAAN98.2771
Inclination98.7221
Eccentricity7.67E-05
Argument of Perigee59.8893
Mean Anonmoly300.2359
Mean Motion14.19580009
Decay Rate2.08E-06
L11 37849U 11061A 24160.16152439 .00000208 00000+0 11938-3 0 9998
L22 37849 98.7221 98.2771 0000767 59.8893 300.2359 14.19580009653584



Live tracking and technical data element details for SUOMI NPP (NORAD 37849). SUOMI NPP can be tracked NOW for your location showing map with azimuth and elevation plus other details from your city location.







IsCatalogInMostPopularTable: catalog: 37849, numindb: 677
Update: records affected: 1



GetName: 37849 SUOMI NPP

Hit Count: updated at: Mon, 17 Jun 2024 23:55:53 GMT